Weather History for Sheridan, WY

Change the Weather History Date:

Monday, March 3, 2014

  Actual Average Record
Temperature  
Mean Temperature 22 °F 31 °F  
Max Temperature 43 °F 44 °F 69 °F (1992)
Min Temperature 0 °F 18 °F -20 °F (1978)
Degree Days  
Heating Degree Days 43 34  
Month to date heating degree days 182 103  
Since 1 July heating degree days 5932 5638  
Cooling Degree Days 0 0  
Month to date cooling degree days 0 0  
Year to date cooling degree days 0 0  
Moisture  
Dew Point 14 °F    
Average Humidity 70    
Maximum Humidity 85    
Minimum Humidity 55    
Precipitation  
Precipitation 0.00 in 0.02 in 0.39 in (1923)
Month to date precipitation 0.13 0.06  
Year to date precipitation 1.98 1.16  
Sea Level Pressure  
Sea Level Pressure 30.01 in    
Wind  
Wind Speed 4 mph (South)    
Max Wind Speed 12 mph    
Max Gust Speed 13 mph    
Visibility 10 miles    
Events      
T = Trace of Precipitation, MM = Missing Value Source: NWS Daily Summary

Daily Weather History Graph

Daily Weather History Graph

Search for Another Location

Airport:

Trip Planner

Search our weather history database for the weather conditions in past years. The results will help you decide how hot, cold, wet, or windy it might be!

Date:

Astronomy

Mar. 03, 2014 Rise Set
Actual Time 6:41 AM MST 5:58 PM MST
Civil Twilight 6:12 AM MST 6:27 PM MST
Nautical Twilight 5:38 AM MST 7:01 PM MST
Astronomical Twilight 5:04 AM MST 7:35 PM MST
Moon 7:44 AM MST (3/3) 9:13 PM MST (3/3)
Length of Visible Light 12h 15m
Length of Day
11h 16m
Waxing Crescent, 8% of the Moon is Illuminated
Mar 3
Waxing Crescent
Mar 8
First Quarter
Mar 16
Full
Mar 23
Last Quarter
Mar 30
New

Hourly Weather History & Observations

Time (MST) Temp. Windchill Dew Point Humidity Pressure Visibility Wind Dir Wind Speed Gust Speed Precip Events Conditions
12:53 AM 1.0 °F -8.7 °F -6.0 °F 72% 30.14 in 10.0 mi Variable 4.6 mph - N/A   Clear
1:53 AM 1.9 °F - -6.0 °F 69% 30.11 in 10.0 mi Calm Calm - N/A   Partly Cloudy
2:53 AM 1.9 °F -5.6 °F -6.0 °F 69% 30.07 in 10.0 mi Variable 3.5 mph - N/A   Mostly Cloudy
3:53 AM 3.9 °F -5.3 °F -4.0 °F 70% 30.04 in 10.0 mi North 4.6 mph - N/A   Mostly Cloudy
4:53 AM 5.0 °F -6.9 °F -2.9 °F 70% 30.06 in 10.0 mi North 6.9 mph - N/A   Mostly Cloudy
5:53 AM 6.1 °F - -2.0 °F 69% 30.09 in 10.0 mi Calm Calm - N/A   Overcast
6:53 AM 7.0 °F 0.1 °F -0.0 °F 73% 30.11 in 10.0 mi SSE 3.5 mph - N/A   Overcast
7:53 AM 9.0 °F 0.6 °F 1.9 °F 73% 30.10 in 10.0 mi South 4.6 mph - N/A   Mostly Cloudy
8:53 AM 12.9 °F - 3.9 °F 67% 30.10 in 10.0 mi Calm Calm - N/A   Partly Cloudy
9:53 AM 18.0 °F 6.9 °F 8.1 °F 65% 30.09 in 10.0 mi South 9.2 mph - N/A   Clear
10:53 AM 26.1 °F - 12.0 °F 55% 30.07 in 10.0 mi Calm Calm - N/A   Clear
11:53 AM 28.0 °F 20.0 °F 19.0 °F 69% 30.04 in 10.0 mi South 8.1 mph - N/A   Clear
12:53 PM 37.0 °F 34.5 °F 24.1 °F 59% 30.00 in 10.0 mi North 3.5 mph - N/A   Clear
1:53 PM 41.0 °F 38.0 °F 28.0 °F 60% 29.97 in 10.0 mi North 4.6 mph - N/A   Clear
2:53 PM 42.1 °F 40.2 °F 28.0 °F 58% 29.97 in 10.0 mi SE 3.5 mph - N/A   Scattered Clouds
3:53 PM 39.9 °F 36.7 °F 28.9 °F 65% 29.96 in 10.0 mi SSE 4.6 mph - N/A   Clear
4:53 PM 36.0 °F 30.3 °F 28.0 °F 73% 29.96 in 10.0 mi NNW 6.9 mph - N/A   Clear
5:53 PM 36.0 °F - 28.0 °F 73% 29.95 in 10.0 mi Calm Calm - N/A   Clear
6:53 PM 34.0 °F 27.2 °F 27.0 °F 75% 29.94 in 10.0 mi NNW 8.1 mph - N/A   Clear
7:53 PM 34.0 °F - 27.0 °F 75% 29.93 in 10.0 mi Calm Calm - N/A   Clear
8:53 PM 30.9 °F - 26.1 °F 82% 29.92 in 10.0 mi Calm Calm - N/A   Partly Cloudy
9:53 PM 30.9 °F 24.3 °F 26.1 °F 82% 29.89 in 10.0 mi North 6.9 mph - N/A   Mostly Cloudy
10:53 PM 28.0 °F - 24.1 °F 85% 29.88 in 10.0 mi Calm Calm - N/A   Clear
11:53 PM 30.9 °F 26.2 °F 26.1 °F 82% 29.86 in 10.0 mi WNW 4.6 mph - N/A   Partly Cloudy